Showing default

CALSPHERE 4(A), 1520

Orbit data source: Space-Track

CALSPHERE 4(A), 1520 is a payload satellite owned by NRL (US) in LEO that was launched on Fri, 13 Aug 1965 UTC via a THOR ABLESTAR launch vehicle from the Air Force Western Test Range (AFWTR). Payload-class satellites include a variety of spacecraft equipped with specific instruments for various scientific and technological missions. These include communications satellites like Starlink; space stations such as the ISS; scientific satellites like the Hubble; Earth observation satellites from companies like Planet Labs, Umbra, and HawkEye 360; GPS; miniature CubeSats for education and research; and military/defense satellites.

Loading next visibility...
Identifier
1520, 1965-065H
Orbit
LEO
Country
Flag of USUS
Related business
Manufacturer
NRL
Mission
Operational spacecraft
Bus & Motor
NRL 14", Unknown motor
Mass
4 kg wet, 4 kg dry
Launch date (UTC)
1965-08-13 (61 years ago)
Launch vehicle
THOR ABLESTAR
Launch site
Air Force Western Test Range (AFWTR)
Object type
Payload
Rocket body
Debris
Shape & HBR
Unknown
Radar Cross Section
Medium (>0.1 m² and <1 m²)

Expand to show TLE details & history
Last TLE update: 10 hours ago

TLE from 10 hours ago
0 CALSPHERE 4(A)
1  1520U 65065H   26199.82518549  .00000084  00000-0  14424-3 0  9999
2  1520  89.8987 122.1769 0070922  15.9472  54.4242 13.36283641966936
Epoch: 2026-07-18T19:48Z
TLE epoch observation values (Epoch: 2026-07-18T19:48:16.026Z)
Latitude
71.10248°
Longitude
-111.22786°
Altitude
1,104.815 km
Speed
7.321 km/s
True Right ascension
08h 09m 53s
True Declination
71° 00' 06"
Sunlit
Object was in daylight at epoch
Visualization orbit readout
Latitude
Unknown
Longitude
Unknown
Altitude
Unknown
Speed
Unknown
Apparent Right ascension
Unknown
Apparent Declination
Unknown
Sunlit
N/A
Visualization observer readout
Local Sidereal Time
18:55:59
Azimuth
Unknown
Elevation
Unknown
Doppler factor
Unknown
Orbital elements
Apogee altitude
1,173.405 km
Perigee altitude
1,067.045 km
Semi-major axis
7,498.362 km
Eccentricity
0.00709
Inclination
89.8987°
RAAN
122.1769°
Arg. of periapsis
15.9472°
True anomaly
55.08862°
Mean anomaly
54.4242°
Eccentric anomaly
54.75607°
Mean motion
3.34267 °/min
Orbital period
107.7 mins
BSTAR
0.00014424
Loading maneuver chart data...
Computing Atmospheric mass density...
Loading historical data...
Loading historical data...
Loading historical data...
Loading historical data...
Loading historical data...
Loading historical data...
Loading historical data...

Documentation

Showing up to 5 results
|